When you browse on this site, cookies collect data to enhance your experience and personalize the content and advertising you see.
Visit our Privacy Policy to learn more. By continuing to use the site, you agree to this use of cookies and data.
  • In Österreich
  • Länderverzeichnis
  • Für 7 Tage
  • Wassertemperatur
  • Satellitenkarten
  • Wetterkarte
  • News
  • Widgets
  • user-avatar
    Anmelden

    Stündliche Wetter Novaya Derevnya

    Heute, 21 Januar, Montag

    Zeit Temperatur Niederschläge Wind Luftdruck Luftfeuchtigkeit
    00:00 -10°C° 0 mm 3 m/S 735 mmHg 94%
    01:00 -10°C° 0 mm 3 m/S 736 mmHg 93%
    02:00 -10°C° 0 mm 3 m/S 736 mmHg 92%
    03:00 -10°C° 0 mm 3 m/S 736 mmHg 91%
    04:00 -12°C° 0 mm 3 m/S 736 mmHg 91%
    05:00 -12°C° 0 mm 3 m/S 736 mmHg 91%
    06:00 -12°C° 0 mm 3 m/S 736 mmHg 91%
    07:00 -13°C° 0 mm 3 m/S 736 mmHg 91%
    08:00 -13°C° 0 mm 3 m/S 736 mmHg 91%
    09:00 -13°C° 0 mm 3 m/S 736 mmHg 90%
    10:00 -14°C° 0 mm 4 m/S 736 mmHg 88%
    11:00 -14°C° 0 mm 4 m/S 737 mmHg 87%
    12:00 -14°C° 0 mm 4 m/S 737 mmHg 87%
    13:00 -14°C° 0 mm 4 m/S 737 mmHg 87%
    14:00 -13°C° 0 mm 3 m/S 737 mmHg 87%
    15:00 -14°C° 0 mm 3 m/S 737 mmHg 89%
    16:00 -16°C° 0 mm 3 m/S 737 mmHg 92%
    17:00 -16°C° 0 mm 2 m/S 738 mmHg 94%
    18:00 -17°C° 0 mm 2 m/S 738 mmHg 95%
    19:00 -17°C° 0 mm 2 m/S 738 mmHg 96%
    20:00 -18°C° 0 mm 2 m/S 739 mmHg 97%
    21:00 -19°C° 0 mm 2 m/S 739 mmHg 98%
    22:00 -19°C° 0 mm 2 m/S 739 mmHg 98%
    23:00 -20°C° 0 mm 2 m/S 740 mmHg 99%

    Morgen, 22 Januar, Dienstag

    Zeit Temperatur Niederschläge Wind Luftdruck Luftfeuchtigkeit
    00:00 -20°C° 0 mm 2 m/S 740 mmHg 99%
    01:00 -21°C° 0 mm 2 m/S 740 mmHg 99%
    02:00 -21°C° 0 mm 2 m/S 741 mmHg 99%
    03:00 -21°C° 0 mm 2 m/S 741 mmHg 99%
    04:00 -23°C° 0 mm 2 m/S 741 mmHg 99%
    05:00 -23°C° 0 mm 2 m/S 741 mmHg 99%
    06:00 -23°C° 0 mm 2 m/S 742 mmHg 99%
    07:00 -23°C° 0 mm 2 m/S 742 mmHg 99%
    08:00 -24°C° 0 mm 2 m/S 742 mmHg 99%
    09:00 -21°C° 0 mm 2 m/S 742 mmHg 98%
    10:00 -18°C° 0 mm 1 m/S 743 mmHg 97%
    11:00 -17°C° 0 mm 1 m/S 743 mmHg 96%
    12:00 -16°C° 0 mm 1 m/S 743 mmHg 96%
    13:00 -15°C° 0 mm 1 m/S 743 mmHg 95%
    14:00 -14°C° 0 mm 1 m/S 743 mmHg 94%
    15:00 -16°C° 0 mm 1 m/S 743 mmHg 95%
    16:00 -17°C° 0 mm 1 m/S 743 mmHg 96%
    17:00 -19°C° 0 mm 1 m/S 743 mmHg 97%
    18:00 -19°C° 0 mm 1 m/S 742 mmHg 97%
    19:00 -21°C° 0 mm 2 m/S 742 mmHg 97%
    20:00 -21°C° 0 mm 2 m/S 742 mmHg 98%
    21:00 -23°C° 0 mm 2 m/S 742 mmHg 98%
    22:00 -23°C° 0 mm 2 m/S 742 mmHg 99%
    23:00 -23°C° 0 mm 2 m/S 742 mmHg 99%

    übermorgen, 23 Januar, Mittwoch

    Zeit Temperatur Niederschläge Wind Luftdruck Luftfeuchtigkeit
    00:00 -21°C° 0 mm 2 m/S 742 mmHg 99%
    01:00 -20°C° 0 mm 2 m/S 742 mmHg 99%
    02:00 -17°C° 0 mm 1 m/S 742 mmHg 98%
    03:00 -16°C° 0 mm 1 m/S 741 mmHg 98%
    04:00 -15°C° 0 mm 1 m/S 741 mmHg 98%
    05:00 -13°C° 0 mm 1 m/S 741 mmHg 98%
    06:00 -13°C° 0 mm 1 m/S 741 mmHg 97%
    07:00 -12°C° 0 mm 1 m/S 741 mmHg 97%
    08:00 -12°C° 0 mm 1 m/S 741 mmHg 97%
    09:00 -12°C° 0 mm 2 m/S 741 mmHg 96%
    10:00 -10°C° 0 mm 2 m/S 741 mmHg 96%
    11:00 -9°C° 0 mm 2 m/S 741 mmHg 95%
    12:00 -9°C° 0 mm 2 m/S 741 mmHg 94%
    13:00 -9°C° 0 mm 3 m/S 741 mmHg 94%
    14:00 -9°C° 0 mm 3 m/S 741 mmHg 94%
    15:00 -9°C° 0 mm 3 m/S 741 mmHg 94%
    16:00 -10°C° 0 mm 3 m/S 741 mmHg 94%
    17:00 -10°C° 0 mm 2 m/S 741 mmHg 95%
    18:00 -13°C° 0 mm 2 m/S 741 mmHg 94%
    19:00 -15°C° 0 mm 2 m/S 741 mmHg 94%
    20:00 -16°C° 0 mm 2 m/S 741 mmHg 94%
    21:00 -17°C° 0 mm 2 m/S 741 mmHg 94%
    22:00 -18°C° 0 mm 2 m/S 741 mmHg 93%
    23:00 -19°C° 0 mm 2 m/S 741 mmHg 92%

    24 Januar, Donnerstag

    Zeit Temperatur Niederschläge Wind Luftdruck Luftfeuchtigkeit
    00:00 -17°C° 0 mm 1 m/S 741 mmHg 92%
    01:00 -17°C° 0 mm 1 m/S 741 mmHg 91%
    02:00 -17°C° 0 mm 1 m/S 741 mmHg 90%
    03:00 -17°C° 0 mm 1 m/S 740 mmHg 90%
    04:00 -17°C° 0 mm 1 m/S 740 mmHg 89%
    05:00 -18°C° 0 mm 1 m/S 740 mmHg 88%
    06:00 -18°C° 0 mm 1 m/S 740 mmHg 87%
    07:00 -18°C° 0 mm 1 m/S 740 mmHg 86%
    08:00 -18°C° 0 mm 1 m/S 740 mmHg 86%
    09:00 -16°C° 0 mm 1 m/S 740 mmHg 87%
    10:00 -16°C° 0 mm 2 m/S 741 mmHg 89%
    11:00 -14°C° 0 mm 2 m/S 741 mmHg 90%
    12:00 -13°C° 0 mm 2 m/S 741 mmHg 91%
    13:00 -12°C° 0 mm 2 m/S 741 mmHg 93%
    14:00 -10°C° 0 mm 2 m/S 742 mmHg 94%
    15:00 -12°C° 0 mm 2 m/S 742 mmHg 95%
    16:00 -13°C° 0 mm 2 m/S 742 mmHg 96%
    17:00 -14°C° 0 mm 2 m/S 743 mmHg 97%
    18:00 -14°C° 0 mm 2 m/S 743 mmHg 96%
    19:00 -13°C° 0 mm 1 m/S 744 mmHg 95%
    20:00 -14°C° 0 mm 1 m/S 745 mmHg 95%
    21:00 -15°C° 0 mm 1 m/S 745 mmHg 94%
    22:00 -16°C° 0 mm 1 m/S 745 mmHg 94%
    23:00 -17°C° 0 mm 1 m/S 746 mmHg 94%

    25 Januar, Freitag

    Zeit Temperatur Niederschläge Wind Luftdruck Luftfeuchtigkeit
    00:00 -18°C° 0 mm 1 m/S 746 mmHg 94%
    01:00 -19°C° 0 mm 1 m/S 746 mmHg 93%
    02:00 -20°C° 0 mm 1 m/S 747 mmHg 93%
    03:00 -20°C° 0 mm 1 m/S 747 mmHg 92%
    04:00 -20°C° 0 mm 1 m/S 747 mmHg 92%
    05:00 -20°C° 0 mm 1 m/S 747 mmHg 91%
    06:00 -21°C° 0 mm 1 m/S 747 mmHg 91%
    07:00 -21°C° 0 mm 1 m/S 748 mmHg 91%
    08:00 -21°C° 0 mm 1 m/S 748 mmHg 91%
    09:00 -19°C° 0 mm 1 m/S 748 mmHg 90%
    10:00 -18°C° 0 mm 1 m/S 748 mmHg 89%
    11:00 -16°C° 0 mm 1 m/S 748 mmHg 88%
    12:00 -15°C° 0 mm 1 m/S 748 mmHg 88%
    13:00 -15°C° 0 mm 1 m/S 748 mmHg 89%
    14:00 -14°C° 0 mm 1 m/S 748 mmHg 89%
    15:00 -15°C° 0 mm 1 m/S 748 mmHg 89%
    16:00 -17°C° 0 mm 1 m/S 747 mmHg 89%
    17:00 -18°C° 0 mm 1 m/S 747 mmHg 89%
    18:00 -18°C° 0 mm 1 m/S 747 mmHg 88%
    19:00 -20°C° 0 mm 2 m/S 747 mmHg 88%
    20:00 -21°C° 0 mm 2 m/S 747 mmHg 88%
    21:00 -21°C° 0 mm 2 m/S 747 mmHg 88%
    22:00 -21°C° 0 mm 2 m/S 747 mmHg 88%
    23:00 -21°C° 0 mm 2 m/S 746 mmHg 89%

    26 Januar, Samstag

    Zeit Temperatur Niederschläge Wind Luftdruck Luftfeuchtigkeit
    00:00 -21°C° 0 mm 2 m/S 746 mmHg 88%
    01:00 -21°C° 0 mm 2 m/S 746 mmHg 88%
    02:00 -21°C° 0 mm 2 m/S 745 mmHg 88%
    03:00 -21°C° 0 mm 2 m/S 745 mmHg 88%
    04:00 -21°C° 0 mm 2 m/S 744 mmHg 89%
    05:00 -21°C° 0 mm 2 m/S 744 mmHg 89%
    06:00 -23°C° 0 mm 2 m/S 744 mmHg 89%
    07:00 -23°C° 0 mm 2 m/S 743 mmHg 89%
    08:00 -24°C° 0 mm 2 m/S 743 mmHg 90%
    09:00 -21°C° 0 mm 2 m/S 743 mmHg 88%
    10:00 -20°C° 0 mm 2 m/S 743 mmHg 87%
    11:00 -19°C° 0 mm 3 m/S 742 mmHg 85%
    12:00 -18°C° 0 mm 2 m/S 742 mmHg 86%
    13:00 -17°C° 0 mm 2 m/S 741 mmHg 86%
    14:00 -17°C° 0 mm 2 m/S 741 mmHg 87%
    15:00 -18°C° 0 mm 2 m/S 741 mmHg 89%
    16:00 -19°C° 0 mm 2 m/S 740 mmHg 90%
    17:00 -21°C° 0 mm 2 m/S 740 mmHg 92%
    18:00 -21°C° 0 mm 2 m/S 740 mmHg 91%
    19:00 -21°C° 0 mm 2 m/S 740 mmHg 90%
    20:00 -23°C° 0 mm 3 m/S 740 mmHg 90%
    21:00 -23°C° 0 mm 3 m/S 739 mmHg 91%
    22:00 -21°C° 0 mm 2 m/S 739 mmHg 91%
    23:00 -21°C° 0 mm 2 m/S 739 mmHg 92%
    Mehr zeigen